#timestamp,LO_Frequency,Hit 
1502211615.3,286046984.5,N
1502211635.1,286046984.7,N
1502211655.8,286046984.4,N
1502211675.7,286046985.8,N
1502211695.5,286046990.0,N
1502211715.3,286046988.2,N
1502211735.2,286046988.4,N
1502211755.9,286046985.9,N
1502211775.7,286046987.8,N
1502211795.6,286046985.9,N
1502211815.4,286046986.4,N
1502211835.2,286046986.6,N
1502211855.0,286046986.7,N
1502211856.0,286046986.7,N
1502211875.8,286046986.1,N
1502211895.6,286046986.8,N
1502211915.4,286046986.3,N
1502211935.3,286046986.1,N
1502211955.1,286046986.3,N
1502211975.8,286046983.7,N
1502211995.7,286046986.6,N
1502212015.5,286046984.5,N
1502212035.3,286046984.0,N
1502212055.2,286046986.7,N
1502212075.9,286046983.8,N
1502212095.7,286046984.3,N
1502212115.6,286046985.0,N
1502212135.4,286046985.6,N
1502212155.2,286046989.9,N
1502212175.0,286046989.1,N
1502212176.0,286046989.1,N
1502212195.8,286046988.8,N
1502212215.6,286046993.0,N
1502212235.4,286046990.9,N
1502212255.3,286046989.2,N
1502212275.1,286046987.3,N
1502212295.8,286046988.3,N
1502212315.7,286046988.1,N
1502212335.5,286046987.7,N
1502212355.3,286046988.4,N
1502212375.2,286046988.1,N
1502212395.9,286046988.2,N
1502212415.7,286046987.2,N
1502212435.6,286046989.9,N
1502212455.4,286046989.9,N
1502212475.2,286046985.4,N
1502212495.0,286046988.4,N
1502212495.9,286046988.4,N
1502212515.8,286046987.7,N
1502212535.6,286046987.0,N
1502212555.4,286046989.3,N
1502212575.3,286046986.9,N
1502212595.1,286046987.1,N
1502212615.8,286046990.0,N
1502212635.7,286046988.7,N
1502212655.5,286046989.5,N
1502212675.3,286046987.2,N
1502212695.2,286046987.9,N
1502212715.9,286046987.2,N
1502212735.7,286046989.9,N
1502212755.5,286046988.1,N
1502212775.4,286046987.4,N
1502212795.2,286046985.4,N
1502212815.0,286046991.0,N
1502212815.9,286046991.0,N
1502212835.8,286046991.5,N
1502212855.6,286046986.9,N
1502212875.4,286046991.6,N
1502212895.3,286046990.2,N
1502212915.1,286046991.5,N
1502212916.0,286046991.5,N
1502212935.8,286046991.6,N
1502212955.7,286046990.3,N
1502212975.5,286046988.9,N
1502212995.3,286046989.5,N
1502213015.1,286046991.2,N
1502213035.9,286046989.2,N
1502213055.7,286046986.9,N
1502213075.5,286046991.1,N
1502213095.4,286046989.1,N
1502213115.2,286046991.5,N
1502213135.0,286046990.7,N
1502213135.9,286046990.7,N
1502213155.8,286046990.7,N
1502213175.6,286046990.7,N
1502213195.4,286046989.6,N
1502213215.3,286046988.8,N
1502213235.1,286046988.7,N
1502213236.0,286046988.7,N
1502213255.8,286046990.9,N
1502213275.7,286046991.6,N
1502213295.5,286046991.0,N
1502213315.3,286046989.3,N
1502213335.2,286046989.6,N
1502213355.9,286046990.1,N
1502213375.7,286046992.7,N
1502213395.5,286046990.3,N
1502213415.4,286046991.2,N
1502213435.2,286046991.4,N
1502213455.0,286046991.4,N
1502213455.9,286046991.4,N
1502213475.8,286046989.2,N
1502213495.6,286046989.0,N
1502213515.4,286046988.4,N
1502213535.3,286046988.3,N
1502213555.1,286046986.9,N
1502213575.8,286046988.6,N
1502213595.7,286046991.0,N
1502213615.5,286046988.9,N
1502213635.3,286046989.0,N
1502213655.2,286046989.3,N
1502213675.9,286046988.5,N
1502213695.7,286046989.3,N
1502213715.5,286046991.6,N
1502213735.4,286046988.9,N
1502213755.2,286046989.8,N
1502213775.0,286046990.1,N
1502213775.9,286046990.1,N
1502213795.8,286046991.2,N
1502213815.6,286046992.8,N
1502213835.4,286046991.1,N
1502213855.3,286046989.7,N
1502213875.1,286046989.5,N
1502213876.0,286046989.5,N
1502213895.8,286046986.9,N
1502213915.7,286046988.7,N
1502213935.5,286046988.5,N
1502213955.3,286046989.7,N
1502213975.1,286046988.5,N
1502213995.9,286046990.6,N
1502214015.7,286046990.7,N
1502214035.5,286046990.8,N
1502214055.4,286046988.9,N
1502214075.2,286046989.0,N
1502214095.0,286046990.2,N
1502214095.9,286046990.2,N
1502214115.8,286046990.5,N
1502214135.6,286046992.2,N
1502214155.4,286046991.7,N
1502214175.3,286046990.3,N
1502214195.1,286046993.0,N
1502214196.0,286046993.0,N
1502214215.8,286046989.0,N
1502214235.7,286046993.2,N
1502214255.5,286046992.6,N
1502214275.3,286046991.8,N
1502214295.2,286046993.2,N
1502214315.9,286046991.2,N
1502214335.7,286046988.9,N
1502214355.5,286046992.5,N
1502214375.4,286046992.6,N
1502214395.2,286046990.5,N
1502214415.0,286046990.2,N
1502214415.9,286046990.2,N
1502214435.8,286046987.0,N
1502214455.6,286046986.9,N
1502214475.4,286046987.8,N
1502214495.3,286046989.2,N
1502214515.1,286046991.0,N
1502214516.0,286046991.0,N
1502214535.8,286046990.3,N
1502214555.7,286046988.7,N
1502214575.5,286046989.2,N
1502214595.3,286046990.0,N
1502214615.1,286046988.8,N
1502214635.9,286046988.5,N
1502214655.7,286046988.9,N
1502214675.5,286046992.0,N
1502214695.4,286046992.7,N
1502214715.2,286046992.4,N
1502214735.0,286046990.6,N
1502214735.9,286046990.6,N
1502214755.8,286046991.6,N
1502214775.6,286046991.0,N
1502214795.4,286046992.5,N
1502214815.3,286046992.1,N
1502214835.1,286046994.7,N
1502214836.0,286046994.7,N
1502214855.8,286046992.8,N
1502214875.7,286046991.8,N
1502214895.5,286046992.0,N
1502214915.3,286046992.7,N
1502214935.1,286046993.1,N
1502214955.9,286046992.8,N
1502214975.7,286046992.4,N
1502214995.5,286046992.4,N
1502215015.4,286046993.9,N
1502215035.2,286046995.5,N
1502215055.0,286046998.0,N
1502215055.9,286046998.0,N
1502215075.8,286046995.9,N
1502215095.6,286046994.8,N
1502215115.4,286046992.3,N
1502215135.3,286046996.0,N
1502215155.1,286046994.0,N
1502215156.0,286046994.0,N
1502215175.8,286046993.8,N
1502215195.7,286046993.7,N
